Year,Month,Day,Hour,Minute,Value (Times are PST for temperature in C)
2012,04,21,00,00,4.60
2012,04,21,00,01,4.60
2012,04,21,00,02,4.60
2012,04,21,00,03,4.60
2012,04,21,00,04,4.50
2012,04,21,00,05,4.50
2012,04,21,00,06,4.50
2012,04,21,00,07,4.50
2012,04,21,00,08,4.50
2012,04,21,00,09,4.50
2012,04,21,00,10,4.50
2012,04,21,00,11,4.50
2012,04,21,00,12,4.50
2012,04,21,00,13,4.40
2012,04,21,00,14,4.40
2012,04,21,00,15,4.40
2012,04,21,00,16,4.40
2012,04,21,00,17,4.40
2012,04,21,00,18,4.40
2012,04,21,00,19,4.40
2012,04,21,00,20,4.40
2012,04,21,00,21,4.40
2012,04,21,00,22,4.40
2012,04,21,00,23,4.40
2012,04,21,00,24,4.40
2012,04,21,00,25,4.40
2012,04,21,00,26,4.40
2012,04,21,00,27,4.40
2012,04,21,00,28,4.30
2012,04,21,00,29,4.30
2012,04,21,00,30,4.30
2012,04,21,00,31,4.30
2012,04,21,00,32,4.30
2012,04,21,00,33,4.30
2012,04,21,00,34,4.30
2012,04,21,00,35,4.30
2012,04,21,00,36,4.30
2012,04,21,00,37,4.20
2012,04,21,00,38,4.20
2012,04,21,00,39,4.20
2012,04,21,00,40,4.20
2012,04,21,00,41,4.20
2012,04,21,00,42,4.20
2012,04,21,00,43,4.20
2012,04,21,00,44,4.10
2012,04,21,00,45,4.10
2012,04,21,00,46,4.10
2012,04,21,00,47,4.10
2012,04,21,00,48,4.10
2012,04,21,00,49,4.10
2012,04,21,00,50,4.10
2012,04,21,00,51,4.10
2012,04,21,00,52,4.20
2012,04,21,00,53,4.20
2012,04,21,00,54,4.20
2012,04,21,00,55,4.20
2012,04,21,00,56,4.20
2012,04,21,00,57,4.20
2012,04,21,00,58,4.20
2012,04,21,00,59,4.20
2012,04,21,01,00,4.20
2012,04,21,01,01,4.20
2012,04,21,01,02,4.10
2012,04,21,01,03,4.10
2012,04,21,01,04,4.10
2012,04,21,01,05,4.10
2012,04,21,01,06,4.10
2012,04,21,01,07,4.00
2012,04,21,01,08,4.00
2012,04,21,01,09,4.00
2012,04,21,01,10,3.90
2012,04,21,01,11,3.90
2012,04,21,01,12,3.90
2012,04,21,01,13,3.90
2012,04,21,01,14,3.90
2012,04,21,01,15,3.90
2012,04,21,01,16,3.90
2012,04,21,01,17,3.90
2012,04,21,01,18,3.80
2012,04,21,01,19,3.80
2012,04,21,01,20,3.80
2012,04,21,01,21,3.80
2012,04,21,01,22,3.80
2012,04,21,01,23,3.80
2012,04,21,01,24,3.80
2012,04,21,01,25,3.70
2012,04,21,01,26,3.70
2012,04,21,01,27,3.70
2012,04,21,01,28,3.70
2012,04,21,01,29,3.70
2012,04,21,01,30,3.70
2012,04,21,01,31,3.60
2012,04,21,01,32,3.60
2012,04,21,01,33,3.60
2012,04,21,01,34,3.60
2012,04,21,01,35,3.60
2012,04,21,01,36,3.60
2012,04,21,01,37,3.60
2012,04,21,01,38,3.50
2012,04,21,01,39,3.50
2012,04,21,01,40,3.50
2012,04,21,01,41,3.50
2012,04,21,01,42,3.50
2012,04,21,01,43,3.40
2012,04,21,01,44,3.40
2012,04,21,01,45,3.40
2012,04,21,01,46,3.40
2012,04,21,01,47,3.40
2012,04,21,01,48,3.40
2012,04,21,01,49,3.40
2012,04,21,01,50,3.30
2012,04,21,01,51,3.30
2012,04,21,01,52,3.30
2012,04,21,01,53,3.30
2012,04,21,01,54,3.30
2012,04,21,01,55,3.30
2012,04,21,01,56,3.30
2012,04,21,01,57,3.20
2012,04,21,01,58,3.20
2012,04,21,01,59,3.20
2012,04,21,02,00,3.20
2012,04,21,02,01,3.20
2012,04,21,02,02,3.20
2012,04,21,02,03,3.20
2012,04,21,02,04,3.20
2012,04,21,02,05,3.20
2012,04,21,02,06,3.10
2012,04,21,02,07,3.10
2012,04,21,02,08,3.10
2012,04,21,02,09,3.10
2012,04,21,02,10,3.10
2012,04,21,02,11,3.10
2012,04,21,02,12,3.10
2012,04,21,02,13,3.10
2012,04,21,02,14,3.10
2012,04,21,02,15,3.00
2012,04,21,02,16,3.00
2012,04,21,02,17,3.00
2012,04,21,02,18,3.00
2012,04,21,02,19,3.00
2012,04,21,02,20,3.00
2012,04,21,02,21,3.00
2012,04,21,02,22,3.00
2012,04,21,02,23,3.00
2012,04,21,02,24,3.00
2012,04,21,02,25,3.00
2012,04,21,02,26,3.00
2012,04,21,02,27,3.00
2012,04,21,02,28,3.00
2012,04,21,02,29,2.90
2012,04,21,02,30,2.90
2012,04,21,02,31,2.90
2012,04,21,02,32,2.90
2012,04,21,02,33,2.90
2012,04,21,02,34,2.90
2012,04,21,02,35,2.90
2012,04,21,02,36,2.90
2012,04,21,02,37,2.90
2012,04,21,02,38,2.90
2012,04,21,02,39,2.90
2012,04,21,02,40,2.90
2012,04,21,02,41,2.90
2012,04,21,02,42,2.90
2012,04,21,02,43,2.90
2012,04,21,02,44,2.90
2012,04,21,02,45,2.90
2012,04,21,02,46,2.90
2012,04,21,02,47,2.90
2012,04,21,02,48,2.90
2012,04,21,02,49,2.90
2012,04,21,02,50,2.90
2012,04,21,02,51,2.90
2012,04,21,02,52,2.90
2012,04,21,02,53,2.90
2012,04,21,02,54,2.90
2012,04,21,02,55,2.90
2012,04,21,02,56,2.90
2012,04,21,02,57,2.80
2012,04,21,02,58,2.80
2012,04,21,02,59,2.80
2012,04,21,03,00,2.80
2012,04,21,03,01,2.80
2012,04,21,03,02,2.80
2012,04,21,03,03,2.80
2012,04,21,03,04,2.70
2012,04,21,03,05,2.70
2012,04,21,03,06,2.70
2012,04,21,03,07,2.70
2012,04,21,03,08,2.70
2012,04,21,03,09,2.70
2012,04,21,03,10,2.70
2012,04,21,03,11,2.70
2012,04,21,03,12,2.70
2012,04,21,03,13,2.70
2012,04,21,03,14,2.70
2012,04,21,03,15,2.60
2012,04,21,03,16,2.60
2012,04,21,03,17,2.60
2012,04,21,03,18,2.60
2012,04,21,03,19,2.60
2012,04,21,03,20,2.60
2012,04,21,03,21,2.60
2012,04,21,03,22,2.60
2012,04,21,03,23,2.60
2012,04,21,03,24,2.60
2012,04,21,03,25,2.60
2012,04,21,03,26,2.70
2012,04,21,03,27,2.70
2012,04,21,03,28,2.70
2012,04,21,03,29,2.70
2012,04,21,03,30,2.70
2012,04,21,03,31,2.70
2012,04,21,03,32,2.70
2012,04,21,03,33,2.70
2012,04,21,03,34,2.70
2012,04,21,03,35,2.60
2012,04,21,03,36,2.60
2012,04,21,03,37,2.60
2012,04,21,03,38,2.60
2012,04,21,03,39,2.60
2012,04,21,03,40,2.60
2012,04,21,03,41,2.60
2012,04,21,03,42,2.50
2012,04,21,03,43,2.50
2012,04,21,03,44,2.50
2012,04,21,03,45,2.50
2012,04,21,03,46,2.50
2012,04,21,03,47,2.50
2012,04,21,03,48,2.50
2012,04,21,03,49,2.50
2012,04,21,03,50,2.50
2012,04,21,03,51,2.50
2012,04,21,03,52,2.40
2012,04,21,03,53,2.40
2012,04,21,03,54,2.40
2012,04,21,03,55,2.40
2012,04,21,03,56,2.40
2012,04,21,03,57,2.40
2012,04,21,03,58,2.40
2012,04,21,03,59,2.40
2012,04,21,04,00,2.40
2012,04,21,04,01,2.40
2012,04,21,04,02,2.30
2012,04,21,04,03,2.30
2012,04,21,04,04,2.30
2012,04,21,04,05,2.30
2012,04,21,04,06,2.30
2012,04,21,04,07,2.30
2012,04,21,04,08,2.30
2012,04,21,04,09,2.30
2012,04,21,04,10,2.20
2012,04,21,04,11,2.30
2012,04,21,04,12,2.20
2012,04,21,04,13,2.20
2012,04,21,04,14,2.20
2012,04,21,04,15,2.20
2012,04,21,04,16,2.20
2012,04,21,04,17,2.20
2012,04,21,04,18,2.20
2012,04,21,04,19,2.20
2012,04,21,04,20,2.20
2012,04,21,04,21,2.20
2012,04,21,04,22,2.20
2012,04,21,04,23,2.20
2012,04,21,04,24,2.20
2012,04,21,04,25,2.20
2012,04,21,04,26,2.20
2012,04,21,04,27,2.20
2012,04,21,04,28,2.20
2012,04,21,04,29,2.20
2012,04,21,04,30,2.20
2012,04,21,04,31,2.20
2012,04,21,04,32,2.20
2012,04,21,04,33,2.20
2012,04,21,04,34,2.20
2012,04,21,04,35,2.20
2012,04,21,04,36,2.20
2012,04,21,04,37,2.20
2012,04,21,04,38,2.20
2012,04,21,04,39,2.20
2012,04,21,04,40,2.20
2012,04,21,04,41,2.20
2012,04,21,04,42,2.20
2012,04,21,04,43,2.20
2012,04,21,04,44,2.20
2012,04,21,04,45,2.20
2012,04,21,04,46,2.20
2012,04,21,04,47,2.20
2012,04,21,04,48,2.20
2012,04,21,04,49,2.20
2012,04,21,04,50,2.20
2012,04,21,04,51,2.20
2012,04,21,04,52,2.20
2012,04,21,04,53,2.20
2012,04,21,04,54,2.20
2012,04,21,04,55,2.20
2012,04,21,04,56,2.20
2012,04,21,04,57,2.20
2012,04,21,04,58,2.20
2012,04,21,04,59,2.20
2012,04,21,05,00,2.20
2012,04,21,05,01,2.20
2012,04,21,05,02,2.20
2012,04,21,05,03,2.20
2012,04,21,05,04,2.20
2012,04,21,05,05,2.20
2012,04,21,05,06,2.20
2012,04,21,05,07,2.20
2012,04,21,05,08,2.20
2012,04,21,05,09,2.20
2012,04,21,05,10,2.20
2012,04,21,05,11,2.20
2012,04,21,05,12,2.20
2012,04,21,05,13,2.20
2012,04,21,05,14,2.20
2012,04,21,05,15,2.30
2012,04,21,05,16,2.30
2012,04,21,05,17,2.30
2012,04,21,05,18,2.30
2012,04,21,05,19,2.30
2012,04,21,05,20,2.30
2012,04,21,05,21,2.30
2012,04,21,05,22,2.30
2012,04,21,05,23,2.30
2012,04,21,05,24,2.30
2012,04,21,05,25,2.30
2012,04,21,05,26,2.30
2012,04,21,05,27,2.30
2012,04,21,05,28,2.30
2012,04,21,05,29,2.30
2012,04,21,05,30,2.30
2012,04,21,05,31,2.30
2012,04,21,05,32,2.30
2012,04,21,05,33,2.20
2012,04,21,05,34,2.20
2012,04,21,05,35,2.20
2012,04,21,05,36,2.20
2012,04,21,05,37,2.20
2012,04,21,05,38,2.20
2012,04,21,05,39,2.20
2012,04,21,05,40,2.20
2012,04,21,05,41,2.20
2012,04,21,05,42,2.20
2012,04,21,05,43,2.20
2012,04,21,05,44,2.20
2012,04,21,05,45,2.20
2012,04,21,05,46,2.20
2012,04,21,05,47,2.20
2012,04,21,05,48,2.30
2012,04,21,05,49,2.30
2012,04,21,05,50,2.30
2012,04,21,05,51,2.30
2012,04,21,05,52,2.30
2012,04,21,05,53,2.30
2012,04,21,05,54,2.30
2012,04,21,05,55,2.30
2012,04,21,05,56,2.30
2012,04,21,05,57,2.30
2012,04,21,05,58,2.30
2012,04,21,05,59,2.30
2012,04,21,06,00,2.30
2012,04,21,06,01,2.30
2012,04,21,06,02,2.30
2012,04,21,06,03,2.30
2012,04,21,06,04,2.30
2012,04,21,06,05,2.30
2012,04,21,06,06,2.20
2012,04,21,06,07,2.20
2012,04,21,06,08,2.20
2012,04,21,06,09,2.20
2012,04,21,06,10,2.20
2012,04,21,06,11,2.20
2012,04,21,06,12,2.20
2012,04,21,06,13,2.20
2012,04,21,06,14,2.20
2012,04,21,06,15,2.20
2012,04,21,06,16,2.30
2012,04,21,06,17,2.30
2012,04,21,06,18,2.30
2012,04,21,06,19,2.30
2012,04,21,06,20,2.30
2012,04,21,06,21,2.30
2012,04,21,06,22,2.30
2012,04,21,06,23,2.30
2012,04,21,06,24,2.30
2012,04,21,06,25,2.30
2012,04,21,06,26,2.30
2012,04,21,06,27,2.30
2012,04,21,06,28,2.30
2012,04,21,06,29,2.40
2012,04,21,06,30,2.40
2012,04,21,06,31,2.40
2012,04,21,06,32,2.40
2012,04,21,06,33,2.40
2012,04,21,06,34,2.40
2012,04,21,06,35,2.40
2012,04,21,06,36,2.40
2012,04,21,06,37,2.50
2012,04,21,06,38,2.50
2012,04,21,06,39,2.50
2012,04,21,06,40,2.50
2012,04,21,06,41,2.50
2012,04,21,06,42,2.50
2012,04,21,06,43,2.60
2012,04,21,06,44,2.60
2012,04,21,06,45,2.60
2012,04,21,06,46,2.60
2012,04,21,06,47,2.60
2012,04,21,06,48,2.60
2012,04,21,06,49,2.60
2012,04,21,06,50,2.60
2012,04,21,06,51,2.60
2012,04,21,06,52,2.60
2012,04,21,06,53,2.60
2012,04,21,06,54,2.60
2012,04,21,06,55,2.60
2012,04,21,06,56,2.60
2012,04,21,06,57,2.60
2012,04,21,06,58,2.70
2012,04,21,06,59,2.70
2012,04,21,07,00,2.70
2012,04,21,07,01,2.70
2012,04,21,07,02,2.70
2012,04,21,07,03,2.70
2012,04,21,07,04,2.70
2012,04,21,07,05,2.70
2012,04,21,07,06,2.80
2012,04,21,07,07,2.80
2012,04,21,07,08,2.80
2012,04,21,07,09,2.80
2012,04,21,07,10,2.80
2012,04,21,07,11,2.80
2012,04,21,07,12,2.80
2012,04,21,07,13,2.80
2012,04,21,07,14,2.90
2012,04,21,07,15,2.90
2012,04,21,07,16,2.90
2012,04,21,07,17,2.90
2012,04,21,07,18,2.90
2012,04,21,07,19,2.90
2012,04,21,07,20,2.90
2012,04,21,07,21,2.90
2012,04,21,07,22,3.00
2012,04,21,07,23,3.00
2012,04,21,07,24,3.00
2012,04,21,07,25,3.00
2012,04,21,07,26,3.10
2012,04,21,07,27,3.10
2012,04,21,07,28,3.10
2012,04,21,07,29,3.10
2012,04,21,07,30,3.10
2012,04,21,07,31,3.20
2012,04,21,07,32,3.20
2012,04,21,07,33,3.20
2012,04,21,07,34,3.20
2012,04,21,07,35,3.20
2012,04,21,07,36,3.30
2012,04,21,07,37,3.30
2012,04,21,07,38,3.30
2012,04,21,07,39,3.40
2012,04,21,07,40,3.40
2012,04,21,07,41,3.50
2012,04,21,07,42,3.50
2012,04,21,07,43,3.60
2012,04,21,07,44,3.60
2012,04,21,07,45,3.70
2012,04,21,07,46,3.70
2012,04,21,07,47,3.80
2012,04,21,07,48,3.80
2012,04,21,07,49,3.90
2012,04,21,07,50,3.90
2012,04,21,07,51,4.00
2012,04,21,07,52,4.00
2012,04,21,07,53,4.10
2012,04,21,07,54,4.10
2012,04,21,07,55,4.20
2012,04,21,07,56,4.20
2012,04,21,07,57,4.30
2012,04,21,07,58,4.30
2012,04,21,07,59,4.40
2012,04,21,08,00,4.50
2012,04,21,08,01,4.50
2012,04,21,08,02,4.60
2012,04,21,08,03,4.70
2012,04,21,08,04,4.70
2012,04,21,08,05,4.80
2012,04,21,08,06,4.80
2012,04,21,08,07,4.90
2012,04,21,08,08,4.90
2012,04,21,08,09,5.00
2012,04,21,08,10,5.10
2012,04,21,08,11,5.10
2012,04,21,08,12,5.10
2012,04,21,08,13,5.20
2012,04,21,08,14,5.20
2012,04,21,08,15,5.20
2012,04,21,08,16,5.20
2012,04,21,08,17,5.20
2012,04,21,08,18,5.30
2012,04,21,08,19,5.30
2012,04,21,08,20,5.30
2012,04,21,08,21,5.30
2012,04,21,08,22,5.30
2012,04,21,08,23,5.30
2012,04,21,08,24,5.30
2012,04,21,08,25,5.30
2012,04,21,08,26,5.40
2012,04,21,08,27,5.40
2012,04,21,08,28,5.40
2012,04,21,08,29,5.40
2012,04,21,08,30,5.50
2012,04,21,08,31,5.50
2012,04,21,08,32,5.60
2012,04,21,08,33,5.60
2012,04,21,08,34,5.60
2012,04,21,08,35,5.70
2012,04,21,08,36,5.70
2012,04,21,08,37,5.80
2012,04,21,08,38,5.80
2012,04,21,08,39,5.90
2012,04,21,08,40,5.90
2012,04,21,08,41,6.00
2012,04,21,08,42,6.10
2012,04,21,08,43,6.10
2012,04,21,08,44,6.20
2012,04,21,08,45,6.20
2012,04,21,08,46,6.30
2012,04,21,08,47,6.30
2012,04,21,08,48,6.40
2012,04,21,08,49,6.40
2012,04,21,08,50,6.50
2012,04,21,08,51,6.50
2012,04,21,08,52,6.60
2012,04,21,08,53,6.60
2012,04,21,08,54,6.70
2012,04,21,08,55,6.70
2012,04,21,08,56,6.80
2012,04,21,08,57,6.80
2012,04,21,08,58,6.90
2012,04,21,08,59,6.90
2012,04,21,09,00,7.00
2012,04,21,09,01,7.00
2012,04,21,09,02,7.10
2012,04,21,09,03,7.20
2012,04,21,09,04,7.20
2012,04,21,09,05,7.20
2012,04,21,09,06,7.30
2012,04,21,09,07,7.30
2012,04,21,09,08,7.40
2012,04,21,09,09,7.50
2012,04,21,09,10,7.60
2012,04,21,09,11,7.60
2012,04,21,09,12,7.70
2012,04,21,09,13,7.80
2012,04,21,09,14,7.80
2012,04,21,09,15,7.90
2012,04,21,09,16,7.90
2012,04,21,09,17,8.00
2012,04,21,09,18,8.00
2012,04,21,09,19,8.10
2012,04,21,09,20,8.10
2012,04,21,09,21,8.10
2012,04,21,09,22,8.20
2012,04,21,09,23,8.30
2012,04,21,09,24,8.30
2012,04,21,09,25,8.40
2012,04,21,09,26,8.40
2012,04,21,09,27,8.50
2012,04,21,09,28,8.60
2012,04,21,09,29,8.60
2012,04,21,09,30,8.70
2012,04,21,09,31,8.80
2012,04,21,09,32,8.90
2012,04,21,09,33,8.90
2012,04,21,09,34,9.00
2012,04,21,09,35,9.10
2012,04,21,09,36,9.20
2012,04,21,09,37,9.20
2012,04,21,09,38,9.30
2012,04,21,09,39,9.30
2012,04,21,09,40,9.40
2012,04,21,09,41,9.40
2012,04,21,09,42,9.40
2012,04,21,09,43,9.50
2012,04,21,09,44,9.50
2012,04,21,09,45,9.60
2012,04,21,09,46,9.60
2012,04,21,09,47,9.60
2012,04,21,09,48,9.70
2012,04,21,09,49,9.70
2012,04,21,09,50,9.70
2012,04,21,09,51,9.80
2012,04,21,09,52,9.80
2012,04,21,09,53,9.90
2012,04,21,09,54,10.00
2012,04,21,09,55,10.00
2012,04,21,09,56,10.10
2012,04,21,09,57,10.10
2012,04,21,09,58,10.10
2012,04,21,09,59,10.20
2012,04,21,10,00,10.20
2012,04,21,10,01,10.10
2012,04,21,10,02,10.10
2012,04,21,10,03,10.10
2012,04,21,10,04,10.10
2012,04,21,10,05,10.10
2012,04,21,10,06,10.10
2012,04,21,10,07,10.20
2012,04,21,10,08,10.20
2012,04,21,10,09,10.20
2012,04,21,10,10,10.30
2012,04,21,10,11,10.40
2012,04,21,10,12,10.50
2012,04,21,10,13,10.50
2012,04,21,10,14,10.60
2012,04,21,10,15,10.60
2012,04,21,10,16,10.70
2012,04,21,10,17,10.70
2012,04,21,10,18,10.80
2012,04,21,10,19,10.80
2012,04,21,10,20,10.80
2012,04,21,10,21,10.80
2012,04,21,10,22,10.90
2012,04,21,10,23,10.90
2012,04,21,10,24,11.00
2012,04,21,10,25,11.00
2012,04,21,10,26,11.00
2012,04,21,10,27,11.10
2012,04,21,10,28,11.10
2012,04,21,10,29,11.10
2012,04,21,10,30,11.10
2012,04,21,10,31,11.20
2012,04,21,10,32,11.20
2012,04,21,10,33,11.20
2012,04,21,10,34,11.20
2012,04,21,10,35,11.20
2012,04,21,10,36,11.20
2012,04,21,10,37,11.20
2012,04,21,10,38,11.30
2012,04,21,10,39,11.30
2012,04,21,10,40,11.40
2012,04,21,10,41,11.40
2012,04,21,10,42,11.40
2012,04,21,10,43,11.40
2012,04,21,10,44,11.40
2012,04,21,10,45,11.30
2012,04,21,10,46,11.30
2012,04,21,10,47,11.20
2012,04,21,10,48,11.20
2012,04,21,10,49,11.20
2012,04,21,10,50,11.20
2012,04,21,10,51,11.20
2012,04,21,10,52,11.20
2012,04,21,10,53,11.20
2012,04,21,10,54,11.20
2012,04,21,10,55,11.20
2012,04,21,10,56,11.20
2012,04,21,10,57,11.20
2012,04,21,10,58,11.20
2012,04,21,10,59,11.10
2012,04,21,11,00,11.20
2012,04,21,11,01,11.20
2012,04,21,11,02,11.20
2012,04,21,11,03,11.20
2012,04,21,11,04,11.20
2012,04,21,11,05,11.20
2012,04,21,11,06,11.20
2012,04,21,11,07,11.20
2012,04,21,11,08,11.20
2012,04,21,11,09,11.20
2012,04,21,11,10,11.20
2012,04,21,11,11,11.20
2012,04,21,11,12,11.30
2012,04,21,11,13,11.30
2012,04,21,11,14,11.30
2012,04,21,11,15,11.30
2012,04,21,11,16,11.30
2012,04,21,11,17,11.30
2012,04,21,11,18,11.30
2012,04,21,11,19,11.40
2012,04,21,11,20,11.40
2012,04,21,11,21,11.40
2012,04,21,11,22,11.40
2012,04,21,11,23,11.50
2012,04,21,11,24,11.50
2012,04,21,11,25,11.50
2012,04,21,11,26,11.60
2012,04,21,11,27,11.60
2012,04,21,11,28,11.60
2012,04,21,11,29,11.60
2012,04,21,11,30,11.60
2012,04,21,11,31,11.60
2012,04,21,11,32,11.70
2012,04,21,11,33,11.70
2012,04,21,11,34,11.70
2012,04,21,11,35,11.70
2012,04,21,11,36,11.70
2012,04,21,11,37,11.70
2012,04,21,11,38,11.70
2012,04,21,11,39,11.70
2012,04,21,11,40,11.70
2012,04,21,11,41,11.70
2012,04,21,11,42,11.70
2012,04,21,11,43,11.60
2012,04,21,11,44,11.60
2012,04,21,11,45,11.60
2012,04,21,11,46,11.60
2012,04,21,11,47,11.60
2012,04,21,11,48,11.60
2012,04,21,11,49,11.60
2012,04,21,11,50,11.50
2012,04,21,11,51,11.60
2012,04,21,11,52,11.60
2012,04,21,11,53,11.60
2012,04,21,11,54,11.50
2012,04,21,11,55,11.60
2012,04,21,11,56,11.60
2012,04,21,11,57,11.70
2012,04,21,11,58,11.70
2012,04,21,11,59,11.80
2012,04,21,12,00,11.80
2012,04,21,12,01,11.90
2012,04,21,12,02,11.90
2012,04,21,12,03,11.90
2012,04,21,12,04,11.90
2012,04,21,12,05,11.90
2012,04,21,12,06,11.90
2012,04,21,12,07,11.90
2012,04,21,12,08,12.00
2012,04,21,12,09,12.10
2012,04,21,12,10,12.10
2012,04,21,12,11,12.10
2012,04,21,12,12,12.00
2012,04,21,12,13,12.00
2012,04,21,12,14,12.00
2012,04,21,12,15,12.10
2012,04,21,12,16,12.00
2012,04,21,12,17,12.00
2012,04,21,12,18,12.00
2012,04,21,12,19,12.00
2012,04,21,12,20,11.90
2012,04,21,12,21,12.00
2012,04,21,12,22,12.00
2012,04,21,12,23,12.10
2012,04,21,12,24,12.10
2012,04,21,12,25,12.20
2012,04,21,12,26,12.20
2012,04,21,12,27,12.20
2012,04,21,12,28,12.20
2012,04,21,12,29,12.20
2012,04,21,12,30,12.20
2012,04,21,12,31,12.20
2012,04,21,12,32,12.20
2012,04,21,12,33,12.20
2012,04,21,12,34,12.10
2012,04,21,12,35,12.10
2012,04,21,12,36,12.00
2012,04,21,12,37,12.00
2012,04,21,12,38,12.00
2012,04,21,12,39,12.00
2012,04,21,12,40,12.00
2012,04,21,12,41,12.00
2012,04,21,12,42,12.10
2012,04,21,12,43,12.10
2012,04,21,12,44,12.10
2012,04,21,12,45,12.10
2012,04,21,12,46,12.20
2012,04,21,12,47,12.20
2012,04,21,12,48,12.10
2012,04,21,12,49,12.20
2012,04,21,12,50,12.20
2012,04,21,12,51,12.20
2012,04,21,12,52,12.20
2012,04,21,12,53,12.20
2012,04,21,12,54,12.20
2012,04,21,12,55,12.20
2012,04,21,12,56,12.30
2012,04,21,12,57,12.30
2012,04,21,12,58,12.30
2012,04,21,12,59,12.30
2012,04,21,13,00,12.40
2012,04,21,13,01,12.40
2012,04,21,13,02,12.40
2012,04,21,13,03,12.30
2012,04,21,13,04,12.30
2012,04,21,13,05,12.30
2012,04,21,13,06,12.30
2012,04,21,13,07,12.30
2012,04,21,13,08,12.30
2012,04,21,13,09,12.30
2012,04,21,13,10,12.30
2012,04,21,13,11,12.40
2012,04,21,13,12,12.40
2012,04,21,13,13,12.40
2012,04,21,13,14,12.40
2012,04,21,13,15,12.40
2012,04,21,13,16,12.40
2012,04,21,13,17,12.40
2012,04,21,13,18,12.50
2012,04,21,13,19,12.50
2012,04,21,13,20,12.50
2012,04,21,13,21,12.50
2012,04,21,13,22,12.40
2012,04,21,13,23,12.40
2012,04,21,13,24,12.30
2012,04,21,13,25,12.30
2012,04,21,13,26,12.30
2012,04,21,13,27,12.30
2012,04,21,13,28,12.40
2012,04,21,13,29,12.40
2012,04,21,13,30,12.50
2012,04,21,13,31,12.50
2012,04,21,13,32,12.60
2012,04,21,13,33,12.60
2012,04,21,13,34,12.60
2012,04,21,13,35,12.60
2012,04,21,13,36,12.60
2012,04,21,13,37,12.50
2012,04,21,13,38,12.50
2012,04,21,13,39,12.50
2012,04,21,13,40,12.50
2012,04,21,13,41,12.60
2012,04,21,13,42,12.60
2012,04,21,13,43,12.60
2012,04,21,13,44,12.60
2012,04,21,13,45,12.60
2012,04,21,13,46,12.60
2012,04,21,13,47,12.60
2012,04,21,13,48,12.60
2012,04,21,13,49,12.60
2012,04,21,13,50,12.60
2012,04,21,13,51,12.60
2012,04,21,13,52,12.60
2012,04,21,13,53,12.60
2012,04,21,13,54,12.50
2012,04,21,13,55,12.50
2012,04,21,13,56,12.50
2012,04,21,13,57,12.50
2012,04,21,13,58,12.40
2012,04,21,13,59,12.40
2012,04,21,14,00,12.40
2012,04,21,14,01,12.40
2012,04,21,14,02,12.30
2012,04,21,14,03,12.30
2012,04,21,14,04,12.30
2012,04,21,14,05,12.30
2012,04,21,14,06,12.30
2012,04,21,14,07,12.40
2012,04,21,14,08,12.40
2012,04,21,14,09,12.40
2012,04,21,14,10,12.40
2012,04,21,14,11,12.40
2012,04,21,14,12,12.40
2012,04,21,14,13,12.40
2012,04,21,14,14,12.40
2012,04,21,14,15,12.40
2012,04,21,14,16,12.40
2012,04,21,14,17,12.40
2012,04,21,14,18,12.40
2012,04,21,14,19,12.40
2012,04,21,14,20,12.40
2012,04,21,14,21,12.40
2012,04,21,14,22,12.40
2012,04,21,14,23,12.40
2012,04,21,14,24,12.40
2012,04,21,14,25,12.40
2012,04,21,14,26,12.40
2012,04,21,14,27,12.40
2012,04,21,14,28,12.40
2012,04,21,14,29,12.40
2012,04,21,14,30,12.40
2012,04,21,14,31,12.40
2012,04,21,14,32,12.40
2012,04,21,14,33,12.40
2012,04,21,14,34,12.40
2012,04,21,14,35,12.40
2012,04,21,14,36,12.40
2012,04,21,14,37,12.40
2012,04,21,14,38,12.40
2012,04,21,14,39,12.50
2012,04,21,14,40,12.50
2012,04,21,14,41,12.50
2012,04,21,14,42,12.50
2012,04,21,14,43,12.50
2012,04,21,14,44,12.40
2012,04,21,14,45,12.50
2012,04,21,14,46,12.50
2012,04,21,14,47,12.50
2012,04,21,14,48,12.50
2012,04,21,14,49,12.60
2012,04,21,14,50,12.60
2012,04,21,14,51,12.60
2012,04,21,14,52,12.60
2012,04,21,14,53,12.70
2012,04,21,14,54,12.70
2012,04,21,14,55,12.70
2012,04,21,14,56,12.70
2012,04,21,14,57,12.70
2012,04,21,14,58,12.80
2012,04,21,14,59,12.80
2012,04,21,15,00,12.80
2012,04,21,15,01,12.80
2012,04,21,15,02,12.80
2012,04,21,15,03,12.90
2012,04,21,15,04,12.90
2012,04,21,15,05,13.00
2012,04,21,15,06,13.00
2012,04,21,15,07,13.10
2012,04,21,15,08,13.10
2012,04,21,15,09,13.20
2012,04,21,15,10,13.20
2012,04,21,15,11,13.20
2012,04,21,15,12,13.30
2012,04,21,15,13,13.30
2012,04,21,15,14,13.30
2012,04,21,15,15,13.40
2012,04,21,15,16,13.40
2012,04,21,15,17,13.40
2012,04,21,15,18,13.40
2012,04,21,15,19,13.50
2012,04,21,15,20,13.50
2012,04,21,15,21,13.50
2012,04,21,15,22,13.50
2012,04,21,15,23,13.60
2012,04,21,15,24,13.60
2012,04,21,15,25,13.60
2012,04,21,15,26,13.60
2012,04,21,15,27,13.60
2012,04,21,15,28,13.70
2012,04,21,15,29,13.70
2012,04,21,15,30,13.70
2012,04,21,15,31,13.80
2012,04,21,15,32,13.80
2012,04,21,15,33,13.80
2012,04,21,15,34,13.80
2012,04,21,15,35,13.80
2012,04,21,15,36,13.80
2012,04,21,15,37,13.80
2012,04,21,15,38,13.80
2012,04,21,15,39,13.80
2012,04,21,15,40,13.70
2012,04,21,15,41,13.70
2012,04,21,15,42,13.70
2012,04,21,15,43,13.70
2012,04,21,15,44,13.80
2012,04,21,15,45,13.80
2012,04,21,15,46,13.80
2012,04,21,15,47,13.80
2012,04,21,15,48,13.80
2012,04,21,15,49,13.80
2012,04,21,15,50,13.80
2012,04,21,15,51,13.80
2012,04,21,15,52,13.80
2012,04,21,15,53,13.80
2012,04,21,15,54,13.90
2012,04,21,15,55,13.90
2012,04,21,15,56,13.90
2012,04,21,15,57,13.90
2012,04,21,15,58,13.90
2012,04,21,15,59,13.90
2012,04,21,16,00,13.90
2012,04,21,16,01,13.90
2012,04,21,16,02,13.90
2012,04,21,16,03,13.90
2012,04,21,16,04,14.00
2012,04,21,16,05,14.00
2012,04,21,16,06,13.90
2012,04,21,16,07,13.90
2012,04,21,16,08,14.00
2012,04,21,16,09,14.00
2012,04,21,16,10,14.00
2012,04,21,16,11,14.00
2012,04,21,16,12,14.10
2012,04,21,16,13,14.10
2012,04,21,16,14,14.10
2012,04,21,16,15,14.10
2012,04,21,16,16,14.10
2012,04,21,16,17,14.10
2012,04,21,16,18,14.20
2012,04,21,16,19,14.20
2012,04,21,16,20,14.20
2012,04,21,16,21,14.20
2012,04,21,16,22,14.30
2012,04,21,16,23,14.30
2012,04,21,16,24,14.30
2012,04,21,16,25,14.30
2012,04,21,16,26,14.30
2012,04,21,16,27,14.30
2012,04,21,16,28,14.30
2012,04,21,16,29,14.40
2012,04,21,16,30,14.40
2012,04,21,16,31,14.40
2012,04,21,16,32,14.40
2012,04,21,16,33,14.40
2012,04,21,16,34,14.40
2012,04,21,16,35,14.40
2012,04,21,16,36,14.40
2012,04,21,16,37,14.40
2012,04,21,16,38,14.40
2012,04,21,16,39,14.40
2012,04,21,16,40,14.40
2012,04,21,16,41,14.40
2012,04,21,16,42,14.40
2012,04,21,16,43,14.30
2012,04,21,16,44,14.30
2012,04,21,16,45,14.30
2012,04,21,16,46,14.30
2012,04,21,16,47,14.30
2012,04,21,16,48,14.20
2012,04,21,16,49,14.20
2012,04,21,16,50,14.20
2012,04,21,16,51,14.20
2012,04,21,16,52,14.20
2012,04,21,16,53,14.30
2012,04,21,16,54,14.30
2012,04,21,16,55,14.30
2012,04,21,16,56,14.30
2012,04,21,16,57,14.30
2012,04,21,16,58,14.30
2012,04,21,16,59,14.30
2012,04,21,17,00,14.30
2012,04,21,17,01,14.30
2012,04,21,17,02,14.30
2012,04,21,17,03,14.30
2012,04,21,17,04,14.20
2012,04,21,17,05,14.20
2012,04,21,17,06,14.20
2012,04,21,17,07,14.20
2012,04,21,17,08,14.20
2012,04,21,17,09,14.20
2012,04,21,17,10,14.10
2012,04,21,17,11,14.10
2012,04,21,17,12,14.10
2012,04,21,17,13,14.10
2012,04,21,17,14,14.10
2012,04,21,17,15,14.00
2012,04,21,17,16,14.00
2012,04,21,17,17,14.00
2012,04,21,17,18,13.90
2012,04,21,17,19,13.90
2012,04,21,17,20,13.90
2012,04,21,17,21,13.90
2012,04,21,17,22,13.90
2012,04,21,17,23,13.90
2012,04,21,17,24,13.90
2012,04,21,17,25,13.90
2012,04,21,17,26,13.90
2012,04,21,17,27,13.90
2012,04,21,17,28,13.90
2012,04,21,17,29,13.90
2012,04,21,17,30,13.90
2012,04,21,17,31,13.90
2012,04,21,17,32,14.00
2012,04,21,17,33,14.00
2012,04,21,17,34,14.00
2012,04,21,17,35,14.00
2012,04,21,17,36,14.00
2012,04,21,17,37,14.00
2012,04,21,17,38,13.90
2012,04,21,17,39,13.90
2012,04,21,17,40,13.90
2012,04,21,17,41,13.90
2012,04,21,17,42,13.90
2012,04,21,17,43,13.90
2012,04,21,17,44,13.90
2012,04,21,17,45,13.90